Find Starlink 31582

NORAD ID: 59545 Int'l Des: 2024-074 Owner: SPXS Country: US Constellation: starlink operational
LEOCIRCULAR

当前视图

正在加载3D地球...

About Starlink 31582

Starlink 31582 (NORAD 59545) is a starlink constellation satellite (v2 mini) launched Apr 18, 2024 by SPXS of US. It operates in LEO, CIRCULAR orbit with a mass of 730.00 kg.

关于 Starlink 31582

正在加载描述...

即将过境

Passes for default location (London). Set your location on the main map for personalized predictions.

高度历史

Loading altitude history...

两行轨道根数

1 59545U 24074M 26169.27351310 -.00000609 00000-0 -12616-4 0 9998
2 59545 43.0004 135.7900 0000809 272.8833 87.1926 15.27570846121390
Epoch: Jun 18, 2026 • Age: 9 hours

当前状态

高度 489.5 km
速度 7.62 km/s
星下点 -26.70°S, 151.32°W
发射日期 Apr 18, 2024
运行时间 2.1 years
类型 internet

技术详情

分类 Payload
质量 730.00 kg
干质量 700.00 kg
总质量 730.00 kg
长度 0.30 m
直径 4.10 m
跨度 29.00 m
形状 Box + pan
制造商 SPXS
平台类型 Starlink V2M
阶段状态 In Orbit
所有者/国家 SPXS/US

Most Searched